Fort Wayne, IN

1:43 AM EDT on June 20, 2018 (GMT -0400)
Fort Wayne International

Weather History for KFWA - July, 2017

Change the Weather History Date:

Thursday, July 6, 2017

  Actual Average Record
Temperature  
Mean Temperature 75 °F 74 °F  
Max Temperature 82 °F 85 °F 101 °F (2012)
Min Temperature 68 °F 63 °F 45 °F (2001)
Degree Days  
Heating Degree Days 0 0  
Month to date heating degree days 0 0  
Since 1 June heating degree days 6 29  
Since 1 July heating degree days 0 0  
Cooling Degree Days 10 9  
Month to date cooling degree days 55 54  
Year to date cooling degree days 334 293  
Since 1 June cooling degree days 270 236  
Growing Degree Days 25 (Base 50)    
Moisture  
Dew Point 68 °F    
Average Humidity 76    
Maximum Humidity 87    
Minimum Humidity 64    
Precipitation  
Precipitation 0.00 in 0.13 in 2.67 in (2003)
Month to date precipitation 0.33 0.78  
Year to date precipitation 31.09 19.74  
Sea Level Pressure  
Sea Level Pressure 29.99 in    
Wind  
Wind Speed 6 mph (South)    
Max Wind Speed 14 mph    
Max Gust Speed 16 mph    
Visibility 10 miles    
Events      
T = Trace of Precipitation, MM = Missing Value Source: NWS Daily Summary

Daily Weather History Graph

Daily Weather History Graph

Search for Another Location

Airport or City:

Astronomy

Jul. 06, 2017 Rise Set
Actual Time 6:15 AM EDT 9:15 PM EDT
Civil Twilight 5:42 AM EDT 9:48 PM EDT
Nautical Twilight 5:00 AM EDT 10:30 PM EDT
Astronomical Twilight 4:10 AM EDT 11:19 PM EDT
Moon 7:09 PM EDT (7/6) 4:29 AM EDT (7/6)
Length of Visible Light 16h 06m
Length of Day
15h 00m
Waxing Gibbous, 94% of the Moon is Illuminated
Jul 6
Waxing Gibbous
Jul 9
Full
Jul 16
Last Quarter
Jul 23
New
Jul 30
First Quarter

Hourly Weather History & Observations

Time (EDT) Temp. Heat Index Dew Point Humidity Pressure Visibility Wind Dir Wind Speed Gust Speed Precip Events Conditions
12:54 AM 73.0 °F - 60.1 °F 64% 30.05 in 10.0 mi ESE 3.5 mph - N/A   Mostly Cloudy
1:54 AM 71.1 °F - 64.0 °F 78% 30.04 in 10.0 mi East 3.5 mph - N/A   Mostly Cloudy
2:54 AM 71.1 °F - 63.0 °F 75% 30.03 in 10.0 mi ESE 6.9 mph - N/A   Overcast
3:54 AM 71.1 °F - 63.0 °F 75% 30.02 in 10.0 mi East 3.5 mph - N/A   Overcast
4:54 AM 70.0 °F - 63.0 °F 78% 30.01 in 10.0 mi Calm Calm - N/A   Mostly Cloudy
5:54 AM 68.0 °F - 63.0 °F 84% 30.00 in 10.0 mi ENE 4.6 mph - N/A   Mostly Cloudy
6:54 AM 69.1 °F - 64.0 °F 84% 30.02 in 10.0 mi Calm Calm - N/A   Overcast
7:54 AM 70.0 °F - 64.9 °F 84% 30.03 in 10.0 mi North 3.5 mph - N/A   Overcast
8:54 AM 75.0 °F - 66.9 °F 76% 30.03 in 10.0 mi Calm Calm - N/A   Mostly Cloudy
9:54 AM 78.1 °F - 68.0 °F 71% 30.00 in 10.0 mi ENE 4.6 mph - N/A   Mostly Cloudy
10:54 AM 80.1 °F 82.7 °F 68.0 °F 67% 30.00 in 10.0 mi NNE 4.6 mph - N/A   Mostly Cloudy
11:54 AM 79.0 °F - 68.0 °F 69% 30.03 in 10.0 mi WNW 4.6 mph - N/A   Overcast
12:54 PM 80.1 °F 82.7 °F 68.0 °F 67% 30.02 in 10.0 mi Variable 3.5 mph - N/A   Mostly Cloudy
1:54 PM 80.1 °F 83.8 °F 72.0 °F 76% 30.00 in 9.0 mi South 10.4 mph - N/A   Overcast
2:43 PM 79.0 °F - 71.1 °F 77% 29.99 in 9.0 mi SSW 8.1 mph - N/A   Mostly Cloudy
2:54 PM 79.0 °F - 71.1 °F 77% 29.97 in 10.0 mi South 9.2 mph - N/A   Overcast
3:10 PM 80.1 °F 83.6 °F 71.1 °F 74% 29.99 in 10.0 mi SSW 9.2 mph - N/A   Overcast
3:54 PM 81.0 °F 84.9 °F 71.1 °F 72% 29.98 in 10.0 mi SW 8.1 mph - N/A   Overcast
4:54 PM 82.0 °F 86.3 °F 71.1 °F 69% 29.96 in 10.0 mi SSW 12.7 mph - N/A   Overcast
5:54 PM 81.0 °F 84.4 °F 70.0 °F 69% 29.95 in 10.0 mi SW 10.4 mph - N/A   Overcast
6:54 PM 82.0 °F 85.9 °F 70.0 °F 67% 29.93 in 10.0 mi SW 8.1 mph - N/A   Mostly Cloudy
7:54 PM 81.0 °F 84.4 °F 70.0 °F 69% 29.92 in 10.0 mi SW 10.4 mph - N/A   Scattered Clouds
8:54 PM 78.1 °F - 70.0 °F 76% 29.92 in 10.0 mi SSW 6.9 mph - N/A   Partly Cloudy
9:54 PM 73.9 °F - 69.1 °F 85% 29.93 in 10.0 mi SSW 6.9 mph - N/A   Partly Cloudy
10:54 PM 73.9 °F - 69.1 °F 85% 29.93 in 10.0 mi SSW 9.2 mph - N/A   Clear
11:54 PM 73.0 °F - 69.1 °F 87% 29.94 in 10.0 mi SW 10.4 mph - N/A   Partly Cloudy